Location: Shepherdstown, WV
(39.4326°N, 77.8042°W)
Time: 03:48:56
(UTC-04:00)

Vanguard 1 - Pass Details

Date: 30 September 2021
Orbit: 653 x 3829 km, 34.2° (Epoch: 18 October)

Event Time Altitude Azimuth Distance (km) Brightness Sun altitude
Rises 01:08:48 0° 284° (WNW) 7,308 14.6 -53.4°
Reaches altitude 10° 01:13:42 10° 279° (W) 6,557 14.2 -53.3°
Enters shadow 01:22:07 28° 264° (W) 5,463 13.6 -53.2°
